Regional Weather Roundup
Issued by NWS

Home | Current Version | Previous Version | Text Only | Print | Product List | Glossary Off
Versions: 1 2 3 4 5 6 7 8 9 10 11 12 13 14 15 16 17 18 19 20 21 22 23 24 25 26 27 28 29 30 31 32 33 34 35 36 37 38 39 40 41 42 43 44 45 46 47 48 49 50

000
ASUS43 KLOT 220310
RWRIL

ILLINOIS REGIONAL WEATHER ROUNDUP
NATIONAL WEATHER SERVICE CHICAGO/ROMEOVILLE IL
1000 PM CDT TUE OCT 21 2014

NOTE: "FAIR" INDICATES FEW OR NO CLOUDS BELOW 12,000 FEET WITH NO
SIGNIFICANT WEATHER AND/OR OBSTRUCTIONS TO VISIBILITY.

* THESE STATIONS ARE NOT UNDER NWS QUALITY CONTROL. THEY ALSO MAY NOT
  REPORT WEATHER SUCH AS PRECIPITATION OR FOG.

ILZ001-002-007-009-015-016-024-220400-
NORTHWEST ILLINOIS

CITY           SKY/WX    TMP DP  RH WIND       PRES   REMARKS
MOLINE         CLEAR     40  36  86 E7        30.25R
STERLING*      CLEAR     39  34  81 E6        30.26S WCI  35
SAVANNA*       CLEAR     42  36  80 CALM      30.26S
$$

ILZ003-004-008-010-011-017-018-220400-
NORTH CENTRAL ILLINOIS

CITY           SKY/WX    TMP DP  RH WIND       PRES   REMARKS
ROCKFORD       CLEAR     42  35  76 E6        30.30R
FREEPORT*      CLEAR     36  33  89 CALM      30.29R
ROCHELLE*      CLEAR     39  36  89 E3        30.28R
DE KALB*       CLEAR     38  35  86 E6        30.27S WCI  34
PERU*          PTCLDY    44  37  77 E7        30.27R
$$

ILZ005-006-012>014-019>023-220400-
NORTHEAST ILLINOIS

CITY           SKY/WX    TMP DP  RH WIND       PRES   REMARKS
CHICAGO-OHARE  MOCLDY    46  38  73 N7        30.26S
CHICAGO-MIDWAY CLOUDY    51  38  60 N10       30.26R
AURORA         CLEAR     40  34  79 NE3       30.27R
LANSING*       CLOUDY    49  38  66 N5        30.26R
JOLIET*        CLOUDY    47  37  67 N6        30.26S
WAUKEGAN       CLOUDY    45  38  76 N3        30.26S
DUPAGE AIRPORT CLEAR     40  35  83 N3        30.26S
KANKAKEE*      CLOUDY    49  40  72 N6        30.26S
WHEELING       CLOUDY    47  38  71 NE3       30.27S
MORRIS*        CLOUDY    47  40  74 NE3       30.26R
ROMEOVILLE*    CLOUDY    47  37  66 NE6       30.26S
NORTHERLY ISL    N/A     50  38  63 N12         N/A
$$

LMZ740>746-220400-
SOUTHERN LAKE MICHIGAN

STATION/POSITION SKY/WX   TEMP    WIND        PRES    VSBY  WAVE
                          AIR SEA DIR/SP/G                  HT/PER
                          (F)     (DEG/KT/KT) (MB)    (MI)  (FT/S)
SOUTHERN BUOY              49 54   20/ 14/ 16 1024.9R         5/ 6
WAUKEGAN HARBOR            49      40/ 13/ 17   N/A
HARRISON CRIB              50      20/ 10/ 14   N/A
BURNHAM HARBOR             50      20/ 10/ 12   N/A
CALUMET HARBOR             50      10/  7/ 10 1023.3S
MICHIGAN CITY              46      90/  5/  7   N/A
$$

ILZ025>027-034>036-040-047-049-050-058-095>099-220400-
WEST-CENTRAL ILLINOIS

CITY           SKY/WX    TMP DP  RH WIND       PRES   REMARKS
QUINCY         CLEAR     49  39  68 E6        30.20R
GALESBURG*     CLEAR     46  39  76 E6        30.24R
MACOMB*        CLEAR     40  37  88 E6        30.25R
JACKSONVILLE*  CLEAR     48  40  73 E10       30.22R
PITTSFIELD*    CLEAR     50  40  68 CALM      30.21R
$$

ILZ028>032-037-038-041>044-048-051>054-059>061-220400-
CENTRAL ILLINOIS

CITY           SKY/WX    TMP DP  RH WIND       PRES   REMARKS
PONTIAC        MOCLDY    46  39  75 NE7       30.26R
BLOOMINGTON    CLEAR     42  39  89 NE8       30.25R
DECATUR        CLEAR     42  38  85 NE8       30.23R
PEORIA         CLEAR     49  39  68 E12       30.25R
LACON*         CLEAR     42  37  82 E7        30.25S
LINCOLN*       CLEAR     42  39  88 CALM      30.24R
SPRINGFIELD    CLEAR     49  42  77 E12       30.23R
TAYLORVILLE    CLEAR     46  39  76 NE8       30.23R
$$

ILZ033-039-045-046-055>057-062-063-220400-
EAST-CENTRAL ILLINOIS

CITY           SKY/WX    TMP DP  RH WIND       PRES   REMARKS
CHAMPAIGN      CLOUDY    50  40  68 N14G20    30.23S
DANVILLE*      CLOUDY    46  41  81 NE3       30.21R
RANTOUL*       CLOUDY    51  38  61 NE10G18   30.24S
MATTOON        CLEAR     44  40  85 NE3       30.21R
PARIS*         CLEAR     46  42  83 CALM      30.24R
$$

ILZ079-100>102-220400-
SOUTHWEST ILLINOIS

CITY           SKY/WX    TMP DP  RH WIND       PRES   REMARKS
ALTON          CLEAR     52  37  58 NE6       30.19S
BELLEVILLE     CLEAR     51  43  74 NE5       30.19R
CAHOKIA*       CLEAR     50  42  74 E3        30.19R
SPARTA*        CLEAR     48  42  78 NE6       30.19R
$$

ILZ064>066-069>071-074>076-080>082-084>086-088>090-092>094-220400-
SOUTH-CENTRAL ILLINOIS

CITY           SKY/WX    TMP DP  RH WIND       PRES   REMARKS
CARBONDALE     CLEAR     51  42  71 NE7       30.18R
CAIRO*         CLEAR     55  45  69 NE6       30.16R
EFFINGHAM*     CLEAR     48  40  73 NE3       30.22R
MARION         CLEAR     50  43  76 NE5       30.18R
MT. VERNON     CLEAR     45  37  76 N3        30.21R
CENTRALIA*     CLEAR     50  40  67 NE7       30.21R
SALEM*         CLEAR     51  43  75 NE5       30.21R
METROPOLIS*    CLEAR     54  45  71 NE5       30.16R
$$

ILZ067-068-072-073-078-083-087-091-220400-
SOUTHEAST ILLINOIS

CITY           SKY/WX    TMP DP  RH WIND       PRES   REMARKS
LAWRENCEVILLE  CLEAR     47  43  86 N8        30.20R
FLORA*         CLEAR     48  40  73 NE6       30.21R
FAIRFIELD*     CLEAR     47  41  78 N6        30.19R
HARRISBURG*    CLEAR     51  42  71 NE6       30.20R
ROBINSON*      CLEAR     48  45  88 N6        30.22R
CARMI*         CLEAR     48  42  80 N3        30.19R
$$

ABBREVIATIONS USED IN REMARKS
   TC - TEMPERATURE IN CELSIUS
  WCI - WIND CHILL INDEX
   HX - HEAT INDEX
  VSB - VISIBILITY
$$




USA.gov is the U.S. government's official web portal to all federal, state and local government web resources and services.